H1 CPF 2 NER 2021 10 30 9 303 01 glonass139 H2 1808601 9139 43687 2021 10 30 0 0 0 2021 11 2 23 45 0 900 1 1 0 0 0 1 H9 10 0 59517 0.00000 0 -18086888.846 -15859332.377 8509897.910 10 0 59517 900.00000 0 -17082881.861 -15147137.070 11399402.422 10 0 59517 1800.00000 0 -15722048.329 -14361277.795 14067745.441 10 0 59517 2700.00000 0 -14019195.513 -13559664.358 16463248.905 10 0 59517 3600.00000 0 -12001718.392 -12797653.754 18539550.907 10 0 59517 4500.00000 0 -9708684.925 -12125618.236 20256492.672 10 0 59517 5400.00000 0 -7189443.650 -11586742.079 21580884.366 10 0 59517 6300.00000 0 -4501811.092 -11215138.702 22487136.238 10 0 59517 7200.00000 0 -1709913.519 -11034366.227 22957744.031 10 0 59517 8100.00000 0 1118228.534 -11056402.839 22983620.425 10 0 59517 9000.00000 0 3913274.311 -11281124.188 22564266.885 10 0 59517 9900.00000 0 6607190.305 -11696304.390 21707783.028 10 0 59517 10800.00000 0 9135824.063 -12278140.547 20430713.361 10 0 59517 11700.00000 0 11441319.318 -12992279.248 18757733.959 10 0 59517 12600.00000 0 13474273.688 -13795302.698 16721184.356 10 0 59517 13500.00000 0 15195550.655 -14636613.091 14360452.676 10 0 59517 14400.00000 0 16577671.376 -15460637.148 11721224.650 10 0 59517 15300.00000 0 17605728.882 -16209259.072 8854609.844 10 0 59517 16200.00000 0 18277786.849 -16824380.348 5816160.873 10 0 59517 17100.00000 0 18604746.279 -17250498.925 2664803.641 10 0 59517 18000.00000 0 18609685.571 -17437199.041 -538301.231 10 0 59517 18900.00000 0 18326701.496 -17341446.146 -3730944.010 10 0 59517 19800.00000 0 17799299.705 -16929589.108 -6851075.472 10 0 59517 20700.00000 0 17078402.489 -16178983.819 -9838016.629 10 0 59517 21600.00000 0 16220057.908 -15079168.040 -12633644.501 10 0 59517 22500.00000 0 15282947.249 -13632536.020 -15183530.196 10 0 59517 23400.00000 0 14325796.485 -11854482.569 -17438006.294 10 0 59517 24300.00000 0 13404801.646 -9773008.594 -19353142.050 10 0 59517 25200.00000 0 12571177.436 -7427802.904 -20891606.758 10 0 59517 26100.00000 0 11868933.321 -4868837.352 -22023403.869 10 0 59517 27000.00000 0 11332971.556 -2154532.891 -22726461.162 10 0 59517 27900.00000 0 10987587.925 650427.717 -22987065.184 10 0 59517 28800.00000 0 10845438.866 3477549.735 -22800131.257 10 0 59517 29700.00000 0 10907018.712 6257137.077 -22169303.717 10 0 59517 30600.00000 0 11160669.136 8920955.107 -21106884.360 10 0 59517 31500.00000 0 11583120.202 11404834.698 -19633590.483 10 0 59517 32400.00000 0 12140539.826 13651109.212 -17778147.349 10 0 59517 33300.00000 0 12790046.783 15610783.054 -15576723.103 10 0 59517 34200.00000 0 13481622.675 17245341.679 -13072217.499 10 0 59517 35100.00000 0 14160341.283 18528128.242 -10313418.640 10 0 59517 36000.00000 0 14768820.219 19445230.346 -7354044.708 10 0 59517 36900.00000 0 15249790.388 19995841.082 -4251690.060 10 0 59517 37800.00000 0 15548673.839 20192080.878 -1066696.972 10 0 59517 38700.00000 0 15616060.372 20058289.499 2139024.268 10 0 59517 39600.00000 0 15409977.751 19629819.832 5303203.111 10 0 59517 40500.00000 0 14897859.383 18951386.090 8364420.276 10 0 59517 41400.00000 0 14058126.295 18075037.590 11263299.188 10 0 59517 42300.00000 0 12881316.824 17057844.723 13943653.968 10 0 59517 43200.00000 0 11370716.569 15959395.380 16353572.024 10 0 59517 44100.00000 0 9542462.213 14839207.539 18446410.836 10 0 59517 45000.00000 0 7425114.819 13754166.683 20181690.449 10 0 59517 45900.00000 0 5058720.196 12756095.122 21525865.568 10 0 59517 46800.00000 0 2493394.911 11889554.304 22452963.550 10 0 59517 47700.00000 0 -212503.937 11189971.157 22945077.151 10 0 59517 48600.00000 0 -2994550.344 10682165.766 22992703.628 10 0 59517 49500.00000 0 -5784673.762 10379340.946 22594924.441 10 0 59517 50400.00000 0 -8513737.189 10282575.165 21759422.555 10 0 59517 51300.00000 0 -11114163.915 10380839.503 20502337.057 10 0 59517 52200.00000 0 -13522505.738 10651537.784 18847957.492 10 0 59517 53100.00000 0 -15681847.565 11061547.454 16828263.148 10 0 59517 54000.00000 0 -17543949.914 11568718.066 14482315.095 10 0 59517 54900.00000 0 -19071041.208 12123765.149 11855511.557 10 0 59517 55800.00000 0 -20237185.756 12672480.607 8998719.782 10 0 59517 56700.00000 0 -21029170.669 13158167.293 5967300.089 10 0 59517 57600.00000 0 -21446874.593 13524195.570 2820039.983 10 0 59517 58500.00000 0 -21503102.559 13716574.127 -381981.550 10 0 59517 59400.00000 0 -21222893.535 13686426.169 -3576577.894 10 0 59517 60300.00000 0 -20642329.424 13392265.602 -6701663.821 10 0 59517 61200.00000 0 -19806895.322 12801975.872 -9696465.779 10 0 59517 62100.00000 0 -18769459.962 11894406.302 -12502709.390 10 0 59517 63000.00000 0 -17587961.494 10660516.684 -15065760.397 10 0 59517 63900.00000 0 -16322896.424 9104019.930 -17335695.980 10 0 59517 64800.00000 0 -15034717.930 7241493.647 -19268284.906 10 0 59517 65700.00000 0 -13781253.744 5101953.996 -20825856.766 10 0 59517 66600.00000 0 -12615252.962 2725908.022 -21978042.732 10 0 59517 67500.00000 0 -11582165.629 163922.644 -22702373.059 10 0 59517 68400.00000 0 -10718249.013 -2525231.023 -22984719.332 10 0 59517 69300.00000 0 -10049080.564 -5276781.280 -22819572.666 10 0 59517 70200.00000 0 -9588540.226 -8022415.986 -22210152.297 10 0 59517 71100.00000 0 -9338304.749 -10692897.002 -21168342.399 10 0 59517 72000.00000 0 -9287874.914 -13220719.956 -19714458.367 10 0 59517 72900.00000 0 -9415133.871 -15542708.570 -17876847.192 10 0 59517 73800.00000 0 -9687412.226 -17602435.432 -15691329.830 10 0 59517 74700.00000 0 -10063013.928 -19352368.291 -13200496.752 10 0 59517 75600.00000 0 -10493137.420 -20755652.686 -10452870.755 10 0 59517 76500.00000 0 -10924109.731 -21787457.017 -7501953.864 10 0 59517 77400.00000 0 -11299837.882 -22435824.673 -4405177.610 10 0 59517 78300.00000 0 -11564372.906 -22701998.824 -1222777.843 10 0 59517 79200.00000 0 -11664477.052 -22600207.754 1983383.216 10 0 59517 80100.00000 0 -11552084.917 -22156921.442 5151023.964 10 0 59517 81000.00000 0 -11186553.941 -21409612.377 8218655.357 10 0 59517 81900.00000 0 -10536608.916 -20405074.340 11126773.904 10 0 59517 82800.00000 0 -9581898.374 -19197371.223 13819012.307 10 0 59517 83700.00000 0 -8314097.300 -17845503.147 16243225.746 10 0 59517 84600.00000 0 -6737509.797 -16410888.458 18352493.287 10 0 59517 85500.00000 0 -4869146.392 -14954767.407 20106015.846 10 0 59518 0.00000 0 -2738272.698 -13535636.076 21469894.385 10 0 59518 900.00000 0 -385446.566 -12206816.480 22417775.170 10 0 59518 1800.00000 0 2138913.951 -11014265.293 22931349.081 10 0 59518 2700.00000 0 4776377.174 -9994708.988 23000698.876 10 0 59518 3600.00000 0 7462680.791 -9174183.888 22624486.624 10 0 59518 4500.00000 0 10130163.288 -8567040.191 21809978.932 10 0 59518 5400.00000 0 12710344.513 -8175450.704 20572909.435 10 0 59518 6300.00000 0 15136550.047 -7989444.190 18937180.832 10 0 59518 7200.00000 0 17346471.984 -7987461.642 16934411.505 10 0 59518 8100.00000 0 19284561.105 -8137412.201 14603334.473 10 0 59518 9000.00000 0 20904152.008 -8398184.738 11989059.071 10 0 59518 9900.00000 0 22169233.243 -8721552.053 9142208.456 10 0 59518 10800.00000 0 23055788.898 -9054388.060 6117948.452 10 0 59518 11700.00000 0 23552655.483 -9341104.908 2974925.577 10 0 59518 12600.00000 0 23661857.855 -9526207.377 -225865.749 10 0 59518 13500.00000 0 23398409.588 -9556856.465 -3422265.217 10 0 59518 14400.00000 0 22789585.606 -9385333.222 -6552154.926 10 0 59518 15300.00000 0 21873697.059 -8971297.728 -9554670.111 10 0 59518 16200.00000 0 20698419.619 -8283746.289 -12371388.254 10 0 59518 17100.00000 0 19318745.275 -7302582.495 -14947472.796 10 0 59518 18000.00000 0 17794643.838 -6019733.892 -17232748.334 10 0 59518 18900.00000 0 16188532.762 -4439765.162 -19182685.655 10 0 59518 19800.00000 0 14562662.026 -2579959.944 -20759276.803 10 0 59518 20700.00000 0 12976524.533 -469865.986 -21931782.449 10 0 59518 21600.00000 0 11484401.260 1849679.000 -22677336.680 10 0 59518 22500.00000 0 10133144.701 4328001.413 -22981397.051 10 0 59518 23400.00000 0 8960293.907 6906465.959 -22838030.932 10 0 59518 24300.00000 0 7992600.297 9520692.465 -22250032.464 10 0 59518 25200.00000 0 7245025.911 12103023.220 -21228867.761 10 0 59518 26100.00000 0 6720255.678 14585138.036 -19794449.441 10 0 59518 27000.00000 0 6408743.410 16900707.970 -17974744.940 10 0 59518 27900.00000 0 6289288.530 18987976.928 -15805226.366 10 0 59518 28800.00000 0 6330118.007 20792163.259 -13328172.892 10 0 59518 29700.00000 0 6490426.475 22267581.096 -10591839.678 10 0 59518 30600.00000 0 6722308.043 23379393.042 -7649509.966 10 0 59518 31500.00000 0 6972996.742 24104921.320 -4558449.597 10 0 59518 32400.00000 0 7187319.494 24434463.346 -1378784.970 10 0 59518 33300.00000 0 7310256.623 24371578.683 1827672.879 10 0 59518 34200.00000 0 7289500.606 23932836.664 4998634.408 10 0 59518 35100.00000 0 7077904.100 23147036.828 8072543.842 10 0 59518 36000.00000 0 6635713.269 22053936.406 10989773.623 10 0 59518 36900.00000 0 5932491.879 20702539.669 13693777.674 10 0 59518 37800.00000 0 4948654.953 19149022.046 16132181.308 10 0 59518 38700.00000 0 3676547.359 17454376.768 18257787.261 10 0 59518 39600.00000 0 2121022.079 15681882.960 20029479.114 10 0 59518 40500.00000 0 299493.690 13894500.894 21413005.782 10 0 59518 41400.00000 0 -1758535.543 12152302.663 22381633.126 10 0 59518 42300.00000 0 -4012457.803 10510044.531 22916651.265 10 0 59518 43200.00000 0 -6412010.137 9014980.951 23007728.936 10 0 59518 44100.00000 0 -8899134.102 7705009.956 22653108.882 10 0 59518 45000.00000 0 -11410168.776 6607225.848 21859640.991 10 0 59518 45900.00000 0 -13878287.751 5736938.213 20642652.630 10 0 59518 46800.00000 0 -16236080.601 5097197.162 19025658.363 10 0 59518 47700.00000 0 -18418173.148 4678843.907 17039913.941 10 0 59518 48600.00000 0 -20363779.004 4461084.137 14723822.196 10 0 59518 49500.00000 0 -22019077.323 4412560.087 12122201.113 10 0 59518 50400.00000 0 -23339318.271 4492876.447 9285427.031 10 0 59518 51300.00000 0 -24290568.705 4654516.248 6268468.397 10 0 59518 52200.00000 0 -24851024.934 4845066.265 3129827.775 10 0 59518 53100.00000 0 -25011837.140 5009658.273 -69587.964 10 0 59518 54000.00000 0 -24777410.239 5093522.933 -3267647.761 10 0 59518 54900.00000 0 -24165167.713 5044547.942 -6402203.921 10 0 59518 55800.00000 0 -23204787.523 4815731.479 -9412303.255 10 0 59518 56700.00000 0 -21936941.494 4367426.034 -12239377.775 10 0 59518 57600.00000 0 -20411590.597 3669276.225 -14828391.112 10 0 59518 58500.00000 0 -18685907.511 2701767.004 -17128917.518 10 0 59518 59400.00000 0 -16821913.649 1457314.984 -19096131.724 10 0 59518 60300.00000 0 -14883930.002 -59145.137 -20691689.735 10 0 59518 61200.00000 0 -12935949.103 -1830105.618 -21884482.772 10 0 59518 62100.00000 0 -11039038.655 -3825966.312 -22651249.297 10 0 59518 63000.00000 0 -9248885.970 -6006032.310 -22977032.860 10 0 59518 63900.00000 0 -7613586.375 -8319988.007 -22855476.621 10 0 59518 64800.00000 0 -6171768.247 -10709786.869 -22288948.703 10 0 59518 65700.00000 0 -4951132.973 -13111878.512 -21288495.835 10 0 59518 66600.00000 0 -3967470.585 -15459680.269 -19873626.193 10 0 59518 67500.00000 0 -3224191.497 -17686190.089 -18071925.731 10 0 59518 68400.00000 0 -2712392.858 -19726631.483 -15918515.580 10 0 59518 69300.00000 0 -2411455.388 -21521019.735 -13455361.378 10 0 59518 70200.00000 0 -2290143.970 -23016541.905 -10730448.350 10 0 59518 71100.00000 0 -2308163.879 -24169651.025 -7796838.689 10 0 59518 72000.00000 0 -2418105.282 -24947786.868 -4711630.322 10 0 59518 72900.00000 0 -2567692.166 -25330651.666 -1534838.066 10 0 59518 73800.00000 0 -2702239.087 -25310987.977 1671780.285 10 0 59518 74700.00000 0 -2767210.594 -24894827.033 4845929.236 10 0 59518 75600.00000 0 -2710774.001 -24101198.373 7925988.197 10 0 59518 76500.00000 0 -2486236.913 -22961314.198 10852207.439 10 0 59518 77400.00000 0 -2054266.102 -21517263.935 13567863.937 10 0 59518 78300.00000 0 -1384793.932 -19820274.825 16020354.921 10 0 59518 79200.00000 0 -458531.956 -17928612.158 18162208.468 10 0 59518 80100.00000 0 731971.881 -15905207.430 19951992.344 10 0 59518 81000.00000 0 2181776.879 -13815113.474 21355104.648 10 0 59518 81900.00000 0 3873517.564 -11722892.231 22344432.177 10 0 59518 82800.00000 0 5777897.774 -9690043.197 22900864.998 10 0 59518 83700.00000 0 7854690.964 -7772578.347 23013658.403 10 0 59518 84600.00000 0 10054206.180 -6018842.987 22680636.133 10 0 59518 85500.00000 0 12319159.904 -4467671.731 21908231.413 10 0 59519 0.00000 0 14586877.328 -3146954.889 20711365.295 10 0 59519 900.00000 0 16791734.338 -2072673.003 19113163.568 10 0 59519 1800.00000 0 18867737.153 -1248440.452 17144518.776 10 0 59519 2700.00000 0 20751137.777 -665574.033 14843502.636 10 0 59519 3600.00000 0 22382974.389 -303685.042 12254640.556 10 0 59519 4500.00000 0 23711432.677 -131769.140 9428060.514 10 0 59519 5400.00000 0 24693929.632 -109748.384 6418531.683 10 0 59519 6300.00000 0 25298832.578 -190400.650 3284410.439 10 0 59519 7200.00000 0 25506740.900 -321595.275 86513.538 10 0 59519 8100.00000 0 25311275.978 -448740.458 -3113060.043 10 0 59519 9000.00000 0 24719345.138 -517338.734 -6252135.823 10 0 59519 9900.00000 0 23750867.484 -475541.866 -9269675.257 10 0 59519 10800.00000 0 22437972.064 -276596.137 -12106967.907 10 0 59519 11700.00000 0 20823701.166 118926.618 -14708780.480 10 0 59519 12600.00000 0 18960272.542 741208.114 -17024439.551 10 0 59519 13500.00000 0 16906973.058 1609655.685 -19008826.198 10 0 59519 14400.00000 0 14727771.930 2731833.673 -20623262.503 10 0 59519 15300.00000 0 12488753.643 4102900.994 -21836272.037 10 0 59519 16200.00000 0 10255478.217 5705580.304 -22624199.099 10 0 59519 17100.00000 0 8090379.478 7510661.690 -22971674.330 10 0 59519 18000.00000 0 6050310.402 9478021.031 -22871917.383 10 0 59519 18900.00000 0 4184338.178 11558111.392 -22326870.630 10 0 59519 19800.00000 0 2531881.013 13693865.742 -21347161.230 10 0 59519 20700.00000 0 1121264.226 15822931.650 -19951892.271 10 0 59519 21600.00000 0 -31244.729 17880144.630 -18168267.125 10 0 59519 22500.00000 0 -921882.982 19800136.470 -16031054.411 10 0 59519 23400.00000 0 -1559303.302 21519969.069 -13581904.299 10 0 59519 24300.00000 0 -1963954.913 22981683.174 -10868529.786 10 0 59519 25200.00000 0 -2166961.974 24134654.939 -7943769.413 10 0 59519 26100.00000 0 -2208548.851 24937661.313 -4864550.351 10 0 59519 27000.00000 0 -2136080.571 25360567.716 -1690772.807 10 0 59519 27900.00000 0 -2001803.020 25385567.487 1515861.786 10 0 59519 28800.00000 0 -1860379.932 25007921.655 4693055.120 10 0 59519 29700.00000 0 -1766332.110 24236168.817 7779124.877 10 0 59519 30600.00000 0 -1771488.112 23091797.282 10714202.098 10 0 59519 31500.00000 0 -1922554.660 21608394.281 13441389.566 10 0 59519 32400.00000 0 -2258909.668 19830308.824 15907858.939 10 0 59519 33300.00000 0 -2810710.988 17810884.903 18065865.877 10 0 59519 34200.00000 0 -3597400.331 15610339.356 19873664.297 10 0 59519 35100.00000 0 -4626665.164 13293372.983 21296303.132 10 0 59519 36000.00000 0 -5893902.063 10926614.072 22306291.449 10 0 59519 36900.00000 0 -7382204.160 8575999.995 22884120.233 10 0 59519 37800.00000 0 -9062873.645 6304204.567 23018631.924 10 0 59519 38700.00000 0 -10896438.749 4168216.593 22707231.416 10 0 59519 39600.00000 0 -12834133.796 2217168.678 21955934.983 10 0 59519 40500.00000 0 -14819782.045 490504.847 20779256.322 10 0 59519 41400.00000 0 -16792004.382 -983438.367 19199931.607 10 0 59519 42300.00000 0 -18686663.351 -2188379.557 17248488.234 10 0 59519 43200.00000 0 -20439442.091 -3120530.377 14962664.600 10 0 59519 44100.00000 0 -21988451.846 -3788506.206 12386690.950 10 0 59519 45000.00000 0 -23276759.948 -4212713.672 9570443.997 10 0 59519 45900.00000 0 -24254733.047 -4424240.914 6568490.531 10 0 59519 46800.00000 0 -24882097.469 -4463297.242 3439037.491 10 0 59519 47700.00000 0 -25129629.873 -4377267.828 242808.231 10 0 59519 48600.00000 0 -24980406.428 -4218465.509 -2958133.623 10 0 59519 49500.00000 0 -24430556.942 -4041674.832 -6101590.001 10 0 59519 50400.00000 0 -23489490.955 -3901592.558 -9126440.096 10 0 59519 51300.00000 0 -22179584.991 -3850273.604 -11973833.954 10 0 59519 52200.00000 0 -20535342.831 -3934691.449 -14588344.079 10 0 59519 53100.00000 0 -18602063.058 -4194517.424 -16919051.810 10 0 59519 54000.00000 0 -16434068.937 -4660214.241 -18920546.629 10 0 59519 54900.00000 0 -14092574.265 -5351525.867 -20553818.286 10 0 59519 55800.00000 0 -11643274.324 -6276429.091 -21787023.733 10 0 59519 56700.00000 0 -9153762.606 -7430592.589 -22596113.534 10 0 59519 57600.00000 0 -6690881.313 -8797367.758 -22965305.229 10 0 59519 58500.00000 0 -4318116.430 -10348312.971 -22887394.160 10 0 59519 59400.00000 0 -2093146.158 -12044230.293 -22363895.610 10 0 59519 60300.00000 0 -65644.891 -13836671.931 -21405015.369 10 0 59519 61200.00000 0 1724565.794 -15669853.621 -20029449.270 10 0 59519 62100.00000 0 3248942.559 -17482894.900 -18264015.648 10 0 59519 63000.00000 0 4491163.465 -19212292.233 -16143127.980 10 0 59519 63900.00000 0 5447550.588 -20794520.922 -13708118.214 10 0 59519 64800.00000 0 6126955.991 -22168656.218 -11006424.339 10 0 59519 65700.00000 0 6550117.657 -23278903.204 -8090658.472 10 0 59519 66600.00000 0 6748514.437 -24076928.759 -5017574.339 10 0 59519 67500.00000 0 6762770.334 -24523897.451 -1846954.953 10 0 59519 68400.00000 0 6640677.405 -24592125.783 1359557.054 10 0 59519 69300.00000 0 6434922.580 -24266285.472 4539662.840 10 0 59519 70200.00000 0 6200615.978 -23544105.719 7631620.456 10 0 59519 71100.00000 0 5992726.378 -22436545.585 10575443.623 10 0 59519 72000.00000 0 5863532.964 -20967430.018 13314062.642 10 0 59519 72900.00000 0 5860201.375 -19172565.546 15794425.086 10 0 59519 73800.00000 0 6022586.384 -17098373.197 17968515.462 10 0 59519 74700.00000 0 6381353.594 -14800096.247 19794274.815 10 0 59519 75600.00000 0 6956498.868 -12339657.543 21236403.623 10 0 59519 76500.00000 0 7756327.397 -9783255.316 22267033.635 10 0 59519 77400.00000 0 8776935.014 -7198796.786 22866256.877 10 0 59519 78300.00000 0 10002213.570 -4653275.041 23022502.776 10 0 59519 79200.00000 0 11404380.537 -2210196.644 22732756.976 10 0 59519 80100.00000 0 12945011.401 72834.840 22002618.166 10 0 59519 81000.00000 0 14576532.807 2146280.807 20846191.992 10 0 59519 81900.00000 0 16244115.411 3970486.983 19285823.813 10 0 59519 82800.00000 0 17887888.802 5517085.950 17351674.833 10 0 59519 83700.00000 0 19445387.428 6769925.707 15081148.846 10 0 59519 84600.00000 0 20854126.546 7725486.497 12518179.480 10 0 59519 85500.00000 0 22054201.389 8392768.991 9712390.560 10 0 59520 0.00000 0 22990801.223 8792658.923 6718144.938 10 0 59520 900.00000 0 23616533.479 8956795.087 3593497.533 10 0 59520 1800.00000 0 23893458.859 8925987.835 399076.326 10 0 59520 2700.00000 0 23794752.838 8748255.446 -2803092.817 10 0 59520 3600.00000 0 23305921.272 8476560.691 -5950790.739 10 0 59520 4500.00000 0 22425518.123 8166343.748 -8982816.906 10 0 59520 5400.00000 0 21165333.549 7872956.208 -11840184.326 10 0 59520 6300.00000 0 19550042.844 7649105.421 -14467273.656 10 0 59520 7200.00000 0 17616329.633 7542418.240 -16812923.172 10 0 59520 8100.00000 0 15411518.856 7593228.351 -18831432.730 10 0 59520 9000.00000 0 12991775.866 7832681.987 -20483461.495 10 0 59520 9900.00000 0 10419946.428 8281243.394 -21736801.323 10 0 59520 10800.00000 0 7763127.488 8947664.460 -22567010.323 10 0 59520 11700.00000 0 5090069.962 9828463.240 -22957893.943 10 0 59520 12600.00000 0 2468521.940 10907934.430 -22901823.921 10 0 59520 13500.00000 0 -37376.948 12158692.334 -22399888.793 10 0 59520 14400.00000 0 -2369541.438 13542724.144 -21461872.904 10 0 59520 15300.00000 0 -4478124.977 15012909.688 -20106064.303 10 0 59520 16200.00000 0 -6323351.819 16514943.911 -18358895.318 10 0 59520 17100.00000 0 -7876921.161 17989581.237 -16254422.854 10 0 59520 18000.00000 0 -9122925.565 19375107.088 -13833658.817 10 0 59520 18900.00000 0 -10058246.658 20609932.209 -11143764.012 10 0 59520 19800.00000 0 -10692413.189 21635200.141 -8237121.687 10 0 59520 20700.00000 0 -11046929.274 22397297.525 -5170309.458 10 0 59520 21600.00000 0 -11154103.177 22850161.202 -2002990.336 10 0 59520 22500.00000 0 -11055428.026 22957284.672 1203254.735 10 0 59520 23400.00000 0 -10799584.721 22693339.391 4386129.298 10 0 59520 24300.00000 0 -10440153.088 22045342.857 7483834.667 10 0 59520 25200.00000 0 -10033129.341 21013324.702 10436270.069 10 0 59520 26100.00000 0 -9634355.706 19610463.294 13186196.024 10 0 59520 27000.00000 0 -9296971.296 17862687.659 15680338.565 10 0 59520 27900.00000 0 -9068991.917 15807761.788 17870413.373 10 0 59520 28800.00000 0 -8991120.620 13493889.930 19714050.732 10 0 59520 29700.00000 0 -9094880.702 10977901.049 21175604.477 10 0 59520 30600.00000 0 -9401149.118 8323087.682 22226830.537 10 0 59520 31500.00000 0 -9919151.301 5596788.425 22847423.122 10 0 59520 32400.00000 0 -10645959.232 2867813.345 23025399.388 10 0 59520 33300.00000 0 -11566513.684 203817.702 22757326.028 10 0 59520 34200.00000 0 -12654169.959 -2331268.610 22048383.978 10 0 59520 35100.00000 0 -13871744.927 -4679651.072 20912270.170 10 0 59520 36000.00000 0 -15173022.531 -6791821.746 19370937.986 10 0 59520 36900.00000 0 -16504655.916 -8628363.824 17454180.791 10 0 59520 37800.00000 0 -17808387.903 -10161335.882 15199065.675 10 0 59520 38700.00000 0 -19023498.044 -11375179.247 12649227.165 10 0 59520 39600.00000 0 -20089374.741 -12267111.274 9854033.388 10 0 59520 40500.00000 0 -20948105.247 -12846988.555 6867639.653 10 0 59520 41400.00000 0 -21546975.098 -13136646.029 3747946.734 10 0 59520 42300.00000 0 -21840771.724 -13168739.678 555483.412 10 0 59520 43200.00000 0 -21793794.725 -12985141.573 -2647765.519 10 0 59520 44100.00000 0 -21381487.115 -12634954.853 -5799563.112 10 0 59520 45000.00000 0 -20591617.477 -12172232.548 -8838632.321 10 0 59520 45900.00000 0 -19424961.629 -11653496.891 -11705852.223 10 0 59520 46800.00000 0 -17895453.385 -11135164.476 -14345414.544 10 0 59520 47700.00000 0 -16029796.392 -10670986.817 -16705917.156 10 0 59520 48600.00000 0 -13866551.771 -10309615.391 -18741372.596 10 0 59520 49500.00000 0 -11454738.452 -10092395.066 -20412111.289 10 0 59520 50400.00000 0 -8852003.802 -10051480.197 -21685561.291 10 0 59520 51300.00000 0 -6122440.259 -10208353.978 -22536888.939 10 0 59520 52200.00000 0 -3334138.585 -10572814.519 -22949487.618 10 0 59520 53100.00000 0 -556579.628 -11142471.273 -22915304.855 10 0 59520 54000.00000 0 2142026.894 -11902773.763 -22435001.248 10 0 59520 54900.00000 0 4697345.812 -12827571.903 -21517937.997 10 0 59520 55800.00000 0 7051353.713 -13880184.609 -20181993.257 10 0 59520 56700.00000 0 9154508.653 -15014931.765 -18453210.888 10 0 59520 57600.00000 0 10967562.405 -16179064.847 -16365288.509 10 0 59520 58500.00000 0 12462940.238 -17315014.519 -13958915.056 10 0 59520 59400.00000 0 13625631.691 -18362859.935 -11280971.078 10 0 59520 60300.00000 0 14453556.460 -19262915.068 -8383607.769 10 0 59520 61200.00000 0 14957391.688 -19958322.323 -5323223.399 10 0 59520 62100.00000 0 15159869.889 -20397543.466 -2159357.763 10 0 59520 63000.00000 0 15094579.067 -20536642.341 1046473.030 10 0 59520 63900.00000 0 14804317.564 -20341262.800 4231977.886 10 0 59520 64800.00000 0 14339074.909 -19788218.413 7335304.123 10 0 59520 65700.00000 0 13753725.437 -18866627.071 10296238.913 10 0 59520 66600.00000 0 13105533.184 -17578543.014 13057375.077 10 0 59520 67500.00000 0 12451574.137 -15939060.051 15565218.788 10 0 59520 68400.00000 0 11846184.784 -13975881.866 17771218.177 10 0 59520 69300.00000 0 11338544.342 -11728377.596 19632693.594 10 0 59520 70200.00000 0 10970491.934 -9246162.014 21113652.648 10 0 59520 71100.00000 0 10774669.745 -6587259.058 22185475.449 10 0 59520 72000.00000 0 10773069.322 -3815924.498 22827458.004 10 0 59520 72900.00000 0 10976041.247 -1000217.055 23027204.459 10 0 59520 73800.00000 0 11381809.130 1790582.641 22780861.504 10 0 59520 74700.00000 0 11976508.032 4488599.719 22093191.002 10 0 59520 75600.00000 0 12734745.799 7029932.240 20977479.646 10 0 59520 76500.00000 0 13620664.308 9357053.147 19455287.139 10 0 59520 77400.00000 0 14589456.925 11420948.875 17556037.182 10 0 59520 78300.00000 0 15589279.617 13182907.190 15316458.237 10 0 59520 79200.00000 0 16563476.643 14615881.040 12779883.713 10 0 59520 80100.00000 0 17453028.415 15705372.230 9995423.945 10 0 59520 81000.00000 0 18199119.450 16449798.598 7017024.806 10 0 59520 81900.00000 0 18745718.901 16860329.473 3902430.147 10 0 59520 82800.00000 0 19042065.012 16960196.322 712067.523 10 0 59520 83700.00000 0 19044948.431 16783507.482 -2492121.648 10 0 59520 84600.00000 0 18720697.225 16373616.759 -5647884.906 10 0 59520 85500.00000 0 18046778.630 15781114.592 -8693870.875 99